DAL1486 KMCO-GOBD

Flight info

Callsign DAL1486
Flight time 7h 13m
Altitude 41000
Route MZULO3 LENDS M203 SNAGY 2960N 2957N 2950N 2945N 2842N 2740N 2434N ULTEM UR976 LUMPO R976 LIGOV
Aircraft A359/H-SDE2E3GHIJ3J4J5LM1ORWXY/LB1D1

Departure

Time 2026-04-25 12:31
Airport Orlando International Airport (KMCO)

Arrival

Time 2026-04-25 19:44
Airport Blaise Diagne International Airport (GOBD)
Time Latitude Longitude Altitude Speed Heading
2026-04-25 08:46 28.41307 -81.31472 101 ft 0 kts 115°
2026-04-25 10:55 28.41307 -81.31473 101 ft 0 kts 115°
2026-04-25 12:00 28.41318 -81.31498 102 ft 4 kts 115°
2026-04-25 12:00 28.41329 -81.31526 100 ft 4 kts 115°
2026-04-25 12:00 28.41346 -81.31568 101 ft 1 kts 115°
2026-04-25 12:01 28.41346 -81.31569 82 ft 0 kts 115°
2026-04-25 12:12 28.41347 -81.31566 101 ft 1 kts 98°
2026-04-25 12:13 28.41354 -81.31560 103 ft 2 kts 46°
2026-04-25 12:13 28.41364 -81.31566 102 ft 2 kts 333°
2026-04-25 12:13 28.41361 -81.31598 101 ft 10 kts 257°
2026-04-25 12:13 28.41350 -81.31637 101 ft 4 kts 251°
2026-04-25 12:14 28.41348 -81.31643 101 ft 1 kts 248°
2026-04-25 12:14 28.41344 -81.31657 101 ft 3 kts 258°
2026-04-25 12:14 28.41340 -81.31672 101 ft 0 kts 252°
2026-04-25 12:15 28.41338 -81.31682 101 ft 4 kts 255°
2026-04-25 12:15 28.41333 -81.31718 102 ft 0 kts 265°
2026-04-25 12:16 28.41332 -81.31744 101 ft 6 kts 268°
2026-04-25 12:17 28.41343 -81.31770 104 ft 5 kts 304°
2026-04-25 12:17 28.41384 -81.31796 105 ft 9 kts 346°
2026-04-25 12:17 28.41466 -81.31793 107 ft 15 kts
2026-04-25 12:17 28.41545 -81.31789 105 ft 19 kts
2026-04-25 12:18 28.41698 -81.31790 107 ft 24 kts 360°
2026-04-25 12:18 28.41825 -81.31784 104 ft 19 kts 359°
2026-04-25 12:18 28.41955 -81.31787 104 ft 21 kts 356°
2026-04-25 12:18 28.42108 -81.31788 106 ft 21 kts
2026-04-25 12:19 28.42237 -81.31756 106 ft 9 kts 41°
2026-04-25 12:19 28.42305 -81.31674 104 ft 9 kts 22°
2026-04-25 12:19 28.42344 -81.31608 106 ft 13 kts 79°
2026-04-25 12:20 28.42350 -81.31489 103 ft 13 kts 89°
2026-04-25 12:20 28.42351 -81.31376 101 ft 17 kts 90°
2026-04-25 12:20 28.42341 -81.31222 102 ft 21 kts 99°
2026-04-25 12:20 28.42322 -81.31087 101 ft 18 kts 99°
2026-04-25 12:21 28.42317 -81.30926 101 ft 22 kts 86°
2026-04-25 12:21 28.42322 -81.30843 101 ft 0 kts 86°
2026-04-25 12:21 28.42324 -81.30812 101 ft 8 kts 86°
2026-04-25 12:21 28.42329 -81.30723 105 ft 12 kts 85°
2026-04-25 12:22 28.42336 -81.30652 104 ft 9 kts 83°
2026-04-25 12:22 28.42344 -81.30555 101 ft 17 kts 85°
2026-04-25 12:22 28.42350 -81.30431 101 ft 14 kts 86°
2026-04-25 12:22 28.42355 -81.30329 101 ft 10 kts 88°
2026-04-25 12:23 28.42357 -81.30250 101 ft 13 kts 88°
2026-04-25 12:23 28.42358 -81.30152 104 ft 13 kts 89°
2026-04-25 12:23 28.42361 -81.30050 101 ft 11 kts 89°
2026-04-25 12:23 28.42362 -81.29936 101 ft 17 kts 89°
2026-04-25 12:24 28.42371 -81.29838 103 ft 13 kts 63°
2026-04-25 12:24 28.42466 -81.29794 103 ft 18 kts
2026-04-25 12:24 28.42615 -81.29794 102 ft 24 kts 359°
2026-04-25 12:24 28.42733 -81.29797 103 ft 16 kts 358°
2026-04-25 12:25 28.42860 -81.29799 103 ft 21 kts 359°
2026-04-25 12:25 28.42992 -81.29801 101 ft 16 kts
2026-04-25 12:25 28.43109 -81.29800 102 ft 16 kts 360°
2026-04-25 12:25 28.43226 -81.29801 102 ft 15 kts 358°
2026-04-25 12:26 28.43262 -81.29803 102 ft 0 kts 358°
2026-04-25 12:26 28.43277 -81.29803 102 ft 6 kts 359°
2026-04-25 12:27 28.43343 -81.29804 103 ft 12 kts 359°
2026-04-25 12:27 28.43437 -81.29805 102 ft 15 kts 359°
2026-04-25 12:27 28.43524 -81.29788 104 ft 13 kts 34°
2026-04-25 12:27 28.43548 -81.29717 104 ft 0 kts 86°
2026-04-25 12:28 28.43549 -81.29708 104 ft 0 kts 86°
2026-04-25 12:29 28.43549 -81.29705 104 ft 2 kts 86°
2026-04-25 12:29 28.43550 -81.29663 104 ft 8 kts 89°
2026-04-25 12:29 28.43544 -81.29625 104 ft 2 kts 122°
2026-04-25 12:29 28.43512 -81.29602 105 ft 8 kts 160°
2026-04-25 12:30 28.43508 -81.29601 105 ft 0 kts 160°
2026-04-25 12:30 28.43507 -81.29600 105 ft 1 kts 161°
2026-04-25 12:30 28.43433 -81.29587 104 ft 33 kts 176°
2026-04-25 12:31 28.42960 -81.29585 105 ft 103 kts 179°
2026-04-25 12:31 28.42019 -81.29570 104 ft 163 kts 180°
2026-04-25 12:31 28.40840 -81.29566 733 ft 165 kts 179°
2026-04-25 12:31 28.39750 -81.29523 1622 ft 150 kts 178°
2026-04-25 12:32 28.38709 -81.29425 2015 ft 159 kts 174°
2026-04-25 12:32 28.37588 -81.28984 2226 ft 181 kts 152°
2026-04-25 12:32 28.36479 -81.28159 2469 ft 201 kts 146°
2026-04-25 12:32 28.35289 -81.27196 2717 ft 218 kts 144°
2026-04-25 12:33 28.34149 -81.25995 3019 ft 233 kts 133°
2026-04-25 12:33 28.33042 -81.24535 3270 ft 253 kts 125°
2026-04-25 12:33 28.32318 -81.22694 3774 ft 261 kts 101°
2026-04-25 12:33 28.32436 -81.20646 4367 ft 263 kts 71°
2026-04-25 12:34 28.33149 -81.18721 4993 ft 267 kts 64°
2026-04-25 12:34 28.33936 -81.16798 5664 ft 270 kts 64°
2026-04-25 12:34 28.34725 -81.14853 6346 ft 272 kts 65°
2026-04-25 12:34 28.35249 -81.13557 6760 ft 274 kts 64°
2026-04-25 12:35 28.36316 -81.10908 7511 ft 280 kts 64°
2026-04-25 12:35 28.37122 -81.08907 8077 ft 283 kts 64°
2026-04-25 12:35 28.37955 -81.06833 8682 ft 287 kts 64°
2026-04-25 12:35 28.38788 -81.04758 9284 ft 290 kts 64°
2026-04-25 12:36 28.39617 -81.02690 9874 ft 294 kts 64°
2026-04-25 12:36 28.40472 -81.00556 10318 ft 302 kts 64°
2026-04-25 12:36 28.41365 -80.98330 10584 ft 316 kts 64°
2026-04-25 12:36 28.42294 -80.96011 10859 ft 329 kts 64°
2026-04-25 12:37 28.43257 -80.93603 11132 ft 342 kts 64°
2026-04-25 12:37 28.44257 -80.91103 11412 ft 353 kts 64°
2026-04-25 12:37 28.45285 -80.88528 11705 ft 362 kts 64°
2026-04-25 12:37 28.46331 -80.85906 12072 ft 368 kts 64°
2026-04-25 12:38 28.47355 -80.83215 12488 ft 373 kts 68°
2026-04-25 12:38 28.47955 -80.80351 12930 ft 377 kts 81°
2026-04-25 12:38 28.48283 -80.77403 13382 ft 380 kts 82°
2026-04-25 12:38 28.48598 -80.74409 13807 ft 383 kts 82°
2026-04-25 12:39 28.48925 -80.71385 14183 ft 386 kts 82°
2026-04-25 12:39 28.49257 -80.68349 14570 ft 389 kts 82°
2026-04-25 12:39 28.49594 -80.65286 14901 ft 392 kts 82°
2026-04-25 12:39 28.49935 -80.62200 15273 ft 395 kts 81°
2026-04-25 12:40 28.50276 -80.59098 15674 ft 397 kts 81°
2026-04-25 12:40 28.50622 -80.55965 16071 ft 401 kts 81°
2026-04-25 12:40 28.50970 -80.52803 16443 ft 404 kts 81°
2026-04-25 12:40 28.51318 -80.49628 16816 ft 407 kts 81°
2026-04-25 12:41 28.51669 -80.46420 17187 ft 410 kts 81°
2026-04-25 12:41 28.52022 -80.43193 17560 ft 413 kts 81°
2026-04-25 12:41 28.52377 -80.39941 17942 ft 416 kts 81°
2026-04-25 12:41 28.52735 -80.36659 18295 ft 419 kts 81°
2026-04-25 12:42 28.53093 -80.33355 18623 ft 422 kts 81°
2026-04-25 12:42 28.53348 -80.31167 18849 ft 423 kts 79°
2026-04-25 12:42 28.54405 -80.26876 19316 ft 421 kts 65°
2026-04-25 12:42 28.55544 -80.23810 19660 ft 422 kts 64°
2026-04-25 12:43 28.56725 -80.20739 20008 ft 424 kts 64°
2026-04-25 12:43 28.57906 -80.17659 20350 ft 426 kts 64°
2026-04-25 12:43 28.60270 -80.11449 21034 ft 429 kts 64°
2026-04-25 12:44 28.61440 -80.08363 21367 ft 431 kts 64°
2026-04-25 12:44 28.62642 -80.05186 21701 ft 433 kts 64°
2026-04-25 12:44 28.65029 -79.98867 22363 ft 436 kts 64°
2026-04-25 12:45 28.66225 -79.95697 22674 ft 437 kts 64°
2026-04-25 12:45 28.67427 -79.92508 22983 ft 439 kts 64°
2026-04-25 12:45 28.69839 -79.86099 23582 ft 442 kts 65°
2026-04-25 12:46 28.71054 -79.82865 23835 ft 444 kts 65°
2026-04-25 12:46 28.72269 -79.79630 24086 ft 445 kts 65°
2026-04-25 12:46 28.73488 -79.76380 24336 ft 447 kts 65°
2026-04-25 12:46 28.74709 -79.73123 24599 ft 448 kts 65°
2026-04-25 12:47 28.75934 -79.69853 24852 ft 449 kts 65°
2026-04-25 12:47 28.77159 -79.66578 25110 ft 450 kts 65°
2026-04-25 12:47 28.78389 -79.63288 25361 ft 451 kts 65°
2026-04-25 12:47 28.79604 -79.60036 25611 ft 453 kts 65°
2026-04-25 12:48 28.80934 -79.56731 25863 ft 453 kts 60°
2026-04-25 12:48 28.82590 -79.53683 26132 ft 452 kts 53°
2026-04-25 12:48 28.84387 -79.50797 26382 ft 453 kts 52°
2026-04-25 12:48 28.86235 -79.47877 26638 ft 455 kts 52°
2026-04-25 12:49 28.88087 -79.44945 26922 ft 456 kts 52°
2026-04-25 12:49 28.89940 -79.42003 27220 ft 457 kts 52°
2026-04-25 12:49 28.91792 -79.39058 27500 ft 459 kts 52°
2026-04-25 12:49 28.93654 -79.36090 27787 ft 460 kts 52°
2026-04-25 12:50 28.94920 -79.34073 27987 ft 461 kts 52°
2026-04-25 12:50 28.97398 -79.30117 28400 ft 464 kts 53°
2026-04-25 12:50 28.99276 -79.27116 28708 ft 465 kts 53°
2026-04-25 12:50 29.01161 -79.24102 29018 ft 467 kts 53°
2026-04-25 12:51 29.03046 -79.21085 29329 ft 469 kts 53°
2026-04-25 12:51 29.04945 -79.18044 29645 ft 470 kts 53°
2026-04-25 12:51 29.06847 -79.14996 29960 ft 472 kts 53°
2026-04-25 12:51 29.08759 -79.11929 30237 ft 474 kts 53°
2026-04-25 12:52 29.10677 -79.08850 30512 ft 477 kts 53°
2026-04-25 12:52 29.12606 -79.05753 30778 ft 479 kts 53°
2026-04-25 12:52 29.14537 -79.02648 31025 ft 481 kts 53°
2026-04-25 12:52 29.16486 -78.99513 31288 ft 483 kts 53°
2026-04-25 12:53 29.18436 -78.96373 31556 ft 485 kts 53°
2026-04-25 12:53 29.20398 -78.93213 31815 ft 487 kts 53°
2026-04-25 12:53 29.22363 -78.90044 32053 ft 489 kts 53°
2026-04-25 12:53 29.24336 -78.86862 32288 ft 491 kts 53°
2026-04-25 12:54 29.26318 -78.83660 32539 ft 493 kts 53°
2026-04-25 12:54 29.28305 -78.80450 32763 ft 495 kts 53°
2026-04-25 12:54 29.30297 -78.77228 32994 ft 497 kts 53°
2026-04-25 12:54 29.32298 -78.73990 33269 ft 498 kts 53°
2026-04-25 12:55 29.34292 -78.70758 33607 ft 497 kts 53°
2026-04-25 12:55 29.35559 -78.68565 33824 ft 497 kts 57°
2026-04-25 12:55 29.37571 -78.63788 34247 ft 498 kts 68°
2026-04-25 12:55 29.38773 -78.60064 34535 ft 498 kts 69°
2026-04-25 12:56 29.39807 -78.56284 34814 ft 499 kts 75°
2026-04-25 12:56 29.40466 -78.52370 35102 ft 499 kts 79°
2026-04-25 12:56 29.41002 -78.48444 35383 ft 499 kts 80°
2026-04-25 12:56 29.41501 -78.44500 35658 ft 499 kts 80°
2026-04-25 12:57 29.41986 -78.40558 35944 ft 499 kts 80°
2026-04-25 12:57 29.42471 -78.36611 36222 ft 499 kts 80°
2026-04-25 12:57 29.42953 -78.32719 36493 ft 499 kts 80°
2026-04-25 12:57 29.43446 -78.28777 36770 ft 500 kts 79°
2026-04-25 12:58 29.43943 -78.24830 37045 ft 500 kts 79°
2026-04-25 12:58 29.44440 -78.20898 37327 ft 499 kts 79°
2026-04-25 12:58 29.44940 -78.16948 37602 ft 499 kts 79°
2026-04-25 12:58 29.45437 -78.13006 37874 ft 499 kts 79°
2026-04-25 12:59 29.45933 -78.09071 38138 ft 499 kts 79°
2026-04-25 12:59 29.46428 -78.05122 38402 ft 499 kts 79°
2026-04-25 12:59 29.46922 -78.01176 38642 ft 500 kts 79°
2026-04-25 12:59 29.47412 -77.97250 38833 ft 500 kts 79°
2026-04-25 13:00 29.47745 -77.94578 38968 ft 500 kts 79°
2026-04-25 13:00 29.48069 -77.91965 39073 ft 500 kts 79°
2026-04-25 13:00 29.48884 -77.85389 39365 ft 501 kts 79°
2026-04-25 13:00 29.49374 -77.81425 39526 ft 502 kts 79°
2026-04-25 13:01 29.49862 -77.77460 39681 ft 502 kts 79°
2026-04-25 13:01 29.50351 -77.73486 39826 ft 503 kts 79°
2026-04-25 13:01 29.50838 -77.69511 39997 ft 503 kts 79°
2026-04-25 13:01 29.51322 -77.65534 40143 ft 504 kts 80°
2026-04-25 13:02 29.51809 -77.61539 40309 ft 504 kts 80°
2026-04-25 13:02 29.52294 -77.57552 40463 ft 505 kts 80°
2026-04-25 13:02 29.52778 -77.53569 40608 ft 505 kts 80°
2026-04-25 13:02 29.53263 -77.49565 40746 ft 505 kts 80°
2026-04-25 13:03 29.53745 -77.45574 40884 ft 506 kts 80°
2026-04-25 13:03 29.54227 -77.41572 40984 ft 507 kts 80°
2026-04-25 13:03 29.55189 -77.33555 40989 ft 506 kts 80°
2026-04-25 13:04 29.55983 -77.26894 40998 ft 506 kts 80°
2026-04-25 13:04 29.56935 -77.18879 40998 ft 507 kts 80°
2026-04-25 13:05 29.57883 -77.10861 41001 ft 507 kts 81°
2026-04-25 13:05 29.58825 -77.02844 40999 ft 507 kts 81°
2026-04-25 13:06 29.59764 -76.94810 41002 ft 507 kts 81°
2026-04-25 13:06 29.60639 -76.86786 40999 ft 507 kts 85°
2026-04-25 13:07 29.60964 -76.78682 41004 ft 507 kts 87°
2026-04-25 13:07 29.61182 -76.70583 41004 ft 507 kts 87°
2026-04-25 13:08 29.61378 -76.62469 41006 ft 507 kts 87°
2026-04-25 13:08 29.61575 -76.54424 41006 ft 507 kts 87°
2026-04-25 13:09 29.61773 -76.46333 41008 ft 507 kts 88°
2026-04-25 13:09 29.61969 -76.38196 41007 ft 506 kts 88°
2026-04-25 13:10 29.62159 -76.30107 41007 ft 506 kts 88°
2026-04-25 13:10 29.62342 -76.22080 41010 ft 506 kts 88°
2026-04-25 13:11 29.62522 -76.14003 41013 ft 505 kts 88°
2026-04-25 13:11 29.62696 -76.05938 41014 ft 505 kts 88°
2026-04-25 13:12 29.62866 -75.97873 41012 ft 504 kts 88°
2026-04-25 13:12 29.63004 -75.91118 41015 ft 504 kts 88°
2026-04-25 13:13 29.63189 -75.81765 41018 ft 504 kts 88°
2026-04-25 13:13 29.63344 -75.73707 41016 ft 503 kts 88°
2026-04-25 13:14 29.63493 -75.65680 41019 ft 503 kts 88°
2026-04-25 13:14 29.63638 -75.57633 41019 ft 503 kts 89°
2026-04-25 13:15 29.63777 -75.49606 41019 ft 502 kts 89°
2026-04-25 13:15 29.63912 -75.41576 41016 ft 502 kts 89°
2026-04-25 13:16 29.64042 -75.33558 41020 ft 502 kts 89°
2026-04-25 13:16 29.64167 -75.25546 41020 ft 501 kts 89°
2026-04-25 13:17 29.64287 -75.17538 41018 ft 501 kts 89°
2026-04-25 13:17 29.64401 -75.09578 41019 ft 501 kts 89°
2026-04-25 13:18 29.64509 -75.01750 41019 ft 501 kts 89°
2026-04-25 13:18 29.64615 -74.93730 41021 ft 501 kts 89°
2026-04-25 13:19 29.64715 -74.85736 41020 ft 500 kts 89°
2026-04-25 13:19 29.64795 -74.79089 41021 ft 500 kts 89°
2026-04-25 13:20 29.64902 -74.69756 41021 ft 500 kts 89°
2026-04-25 13:20 29.64988 -74.61772 41021 ft 500 kts 89°
2026-04-25 13:21 29.65069 -74.53777 41019 ft 500 kts 89°
2026-04-25 13:21 29.65146 -74.45807 41025 ft 500 kts 90°
2026-04-25 13:22 29.65218 -74.37804 41025 ft 500 kts 90°
2026-04-25 13:23 29.65317 -74.25806 41024 ft 501 kts 90°
2026-04-25 13:23 29.65376 -74.17810 41027 ft 501 kts 90°
2026-04-25 13:24 29.65432 -74.09798 41027 ft 501 kts 90°
2026-04-25 13:24 29.65482 -74.01809 41026 ft 501 kts 90°
2026-04-25 13:25 29.65528 -73.93785 41029 ft 501 kts 90°
2026-04-25 13:25 29.65568 -73.85773 41029 ft 501 kts 90°
2026-04-25 13:26 29.65604 -73.77762 41031 ft 501 kts 90°
2026-04-25 13:26 29.65635 -73.69744 41031 ft 502 kts 90°
2026-04-25 13:27 29.65661 -73.61726 41031 ft 502 kts 90°
2026-04-25 13:27 29.65683 -73.53699 41032 ft 502 kts 90°
2026-04-25 13:28 29.65700 -73.45663 41032 ft 502 kts 90°
2026-04-25 13:28 29.65711 -73.37630 41032 ft 503 kts 90°
2026-04-25 13:29 29.65718 -73.29605 41031 ft 503 kts 90°
2026-04-25 13:29 29.65720 -73.21609 41033 ft 503 kts 90°
2026-04-25 13:30 29.65715 -73.09478 41038 ft 504 kts 90°
2026-04-25 13:31 29.65698 -72.97447 41034 ft 504 kts 90°
2026-04-25 13:31 29.65680 -72.89387 41045 ft 504 kts 90°
2026-04-25 13:32 29.65658 -72.81324 41041 ft 505 kts 91°
2026-04-25 13:32 29.65631 -72.73251 41033 ft 505 kts 91°
2026-04-25 13:33 29.65599 -72.65168 41035 ft 505 kts 91°
2026-04-25 13:33 29.65562 -72.57091 41037 ft 506 kts 91°
2026-04-25 13:34 29.65520 -72.49004 41040 ft 506 kts 91°
2026-04-25 13:34 29.65473 -72.40918 41041 ft 506 kts 91°
2026-04-25 13:35 29.65421 -72.32824 41039 ft 506 kts 91°
2026-04-25 13:35 29.65365 -72.24722 41046 ft 507 kts 91°
2026-04-25 13:36 29.65303 -72.16633 41038 ft 507 kts 91°
2026-04-25 13:36 29.65236 -72.08527 41038 ft 507 kts 91°
2026-04-25 13:37 29.65165 -72.00413 41038 ft 507 kts 91°
2026-04-25 13:37 29.65088 -71.92295 41040 ft 508 kts 91°
2026-04-25 13:38 29.65007 -71.84179 41036 ft 508 kts 91°
2026-04-25 13:38 29.64920 -71.76051 41041 ft 508 kts 91°
2026-04-25 13:39 29.64829 -71.67927 41040 ft 509 kts 91°
2026-04-25 13:39 29.64732 -71.59788 41034 ft 509 kts 91°
2026-04-25 13:40 29.64630 -71.51652 41038 ft 509 kts 91°
2026-04-25 13:40 29.64524 -71.43509 41040 ft 510 kts 91°
2026-04-25 13:41 29.64412 -71.35365 41039 ft 510 kts 91°
2026-04-25 13:41 29.64295 -71.27214 41039 ft 510 kts 91°
2026-04-25 13:42 29.64174 -71.19061 41046 ft 510 kts 91°
2026-04-25 13:42 29.64047 -71.10906 41046 ft 511 kts 91°
2026-04-25 13:43 29.63915 -71.02735 41047 ft 511 kts 91°
2026-04-25 13:43 29.63778 -70.94575 41040 ft 511 kts 92°
2026-04-25 13:44 29.63636 -70.86394 41045 ft 512 kts 92°
2026-04-25 13:44 29.63489 -70.78217 41045 ft 512 kts 92°
2026-04-25 13:45 29.63336 -70.70037 41048 ft 512 kts 92°
2026-04-25 13:45 29.63179 -70.61850 41040 ft 513 kts 92°
2026-04-25 13:46 29.63016 -70.53659 41046 ft 513 kts 92°
2026-04-25 13:46 29.62848 -70.45455 41049 ft 513 kts 92°
2026-04-25 13:47 29.62676 -70.37251 41043 ft 514 kts 92°
2026-04-25 13:47 29.62499 -70.29098 41042 ft 514 kts 92°
2026-04-25 13:48 29.62316 -70.20886 41044 ft 514 kts 92°
2026-04-25 13:48 29.62127 -70.12669 41045 ft 515 kts 92°
2026-04-25 13:49 29.61933 -70.04438 41045 ft 515 kts 92°
2026-04-25 13:49 29.61735 -69.96210 41046 ft 516 kts 92°
2026-04-25 13:50 29.61531 -69.87965 41043 ft 516 kts 92°
2026-04-25 13:50 29.61321 -69.79718 41061 ft 518 kts 92°
2026-04-25 13:51 29.61106 -69.71455 41050 ft 517 kts 92°
2026-04-25 13:51 29.60924 -69.64600 41047 ft 517 kts 92°
2026-04-25 13:52 29.60700 -69.56333 41049 ft 517 kts 92°
2026-04-25 13:52 29.60470 -69.48073 41047 ft 518 kts 92°
2026-04-25 13:53 29.60235 -69.39792 41055 ft 518 kts 92°
2026-04-25 13:53 29.59995 -69.31517 41048 ft 519 kts 92°
2026-04-25 13:54 29.59749 -69.23224 41052 ft 519 kts 92°
2026-04-25 13:54 29.59498 -69.14924 41057 ft 520 kts 93°
2026-04-25 13:55 29.59242 -69.06624 41054 ft 520 kts 93°
2026-04-25 13:55 29.58980 -68.98323 41054 ft 520 kts 93°
2026-04-25 13:56 29.58713 -68.90005 41052 ft 521 kts 93°
2026-04-25 13:56 29.58441 -68.81692 41051 ft 521 kts 93°
2026-04-25 13:57 29.58163 -68.73371 41053 ft 522 kts 93°
2026-04-25 13:57 29.57880 -68.65045 41052 ft 522 kts 93°
2026-04-25 13:58 29.57591 -68.56700 41053 ft 522 kts 93°
2026-04-25 13:58 29.57297 -68.48368 41053 ft 523 kts 93°
2026-04-25 13:59 29.56997 -68.40015 41053 ft 523 kts 93°
2026-04-25 13:59 29.56692 -68.31659 41049 ft 524 kts 94°
2026-04-25 14:00 29.56435 -68.24710 41056 ft 524 kts 94°
2026-04-25 14:00 29.56066 -68.14927 41052 ft 525 kts 94°
2026-04-25 14:01 29.55746 -68.06613 41051 ft 525 kts 94°
2026-04-25 14:01 29.55419 -67.98229 41054 ft 526 kts 94°
2026-04-25 14:02 29.55087 -67.89844 41058 ft 526 kts 94°
2026-04-25 14:02 29.54749 -67.81449 41052 ft 526 kts 94°
2026-04-25 14:03 29.54405 -67.73052 41054 ft 527 kts 94°
2026-04-25 14:03 29.54056 -67.64649 41053 ft 527 kts 94°
2026-04-25 14:04 29.53701 -67.56244 41051 ft 527 kts 94°
2026-04-25 14:04 29.53339 -67.47779 41054 ft 527 kts 94°
2026-04-25 14:05 29.52976 -67.39422 41054 ft 528 kts 94°
2026-04-25 14:05 29.52605 -67.31007 41051 ft 528 kts 95°
2026-04-25 14:06 29.52228 -67.22581 41055 ft 528 kts 95°
2026-04-25 14:06 29.51846 -67.14162 41053 ft 528 kts 95°
2026-04-25 14:07 29.51459 -67.05738 41051 ft 529 kts 95°
2026-04-25 14:07 29.51066 -66.97306 41049 ft 529 kts 95°
2026-04-25 14:08 29.50667 -66.88869 41047 ft 529 kts 95°
2026-04-25 14:08 29.50263 -66.80438 41049 ft 529 kts 95°
2026-04-25 14:09 29.49855 -66.72014 41048 ft 529 kts 95°
2026-04-25 14:09 29.49440 -66.63580 41047 ft 529 kts 95°
2026-04-25 14:10 29.49020 -66.55145 41045 ft 529 kts 95°
2026-04-25 14:10 29.48595 -66.46718 41051 ft 529 kts 95°
2026-04-25 14:11 29.48165 -66.38291 41050 ft 529 kts 95°
2026-04-25 14:11 29.47729 -66.29862 41051 ft 529 kts 95°
2026-04-25 14:12 29.47288 -66.21429 41047 ft 529 kts 95°
2026-04-25 14:12 29.46841 -66.12998 41047 ft 530 kts 95°
2026-04-25 14:13 29.46389 -66.04563 41047 ft 530 kts 96°
2026-04-25 14:13 29.45931 -65.96119 41047 ft 530 kts 96°
2026-04-25 14:14 29.45468 -65.87679 41049 ft 530 kts 96°
2026-04-25 14:14 29.45000 -65.79243 41047 ft 530 kts 96°
2026-04-25 14:15 29.44525 -65.70790 41050 ft 531 kts 96°
2026-04-25 14:15 29.44049 -65.62395 41049 ft 531 kts 96°
2026-04-25 14:16 29.43564 -65.53941 41052 ft 532 kts 96°
2026-04-25 14:16 29.43072 -65.45463 41049 ft 533 kts 96°
2026-04-25 14:17 29.42574 -65.36980 41053 ft 533 kts 96°
2026-04-25 14:17 29.42070 -65.28491 41051 ft 534 kts 96°
2026-04-25 14:18 29.41560 -65.19987 41046 ft 535 kts 97°
2026-04-25 14:18 29.41044 -65.11460 41048 ft 536 kts 97°
2026-04-25 14:19 29.40521 -65.02927 41047 ft 537 kts 97°
2026-04-25 14:19 29.39993 -64.94391 41047 ft 538 kts 97°
2026-04-25 14:20 29.39458 -64.85830 41047 ft 539 kts 97°
2026-04-25 14:20 29.38916 -64.77257 41054 ft 540 kts 98°
2026-04-25 14:21 29.38368 -64.68663 41058 ft 541 kts 98°
2026-04-25 14:21 29.37813 -64.60050 41050 ft 542 kts 98°
2026-04-25 14:22 29.37255 -64.51476 41050 ft 543 kts 98°
2026-04-25 14:22 29.36686 -64.42832 41044 ft 545 kts 98°
2026-04-25 14:23 29.36111 -64.34168 41049 ft 546 kts 99°
2026-04-25 14:23 29.35527 -64.25469 41052 ft 547 kts 99°
2026-04-25 14:24 29.34937 -64.16764 41053 ft 549 kts 99°
2026-04-25 14:24 29.34341 -64.08049 41053 ft 550 kts 99°
2026-04-25 14:25 29.33938 -64.02194 41047 ft 551 kts 99°
2026-04-25 14:25 29.33126 -63.90533 41044 ft 552 kts 100°
2026-04-25 14:26 29.32507 -63.81741 41048 ft 553 kts 100°
2026-04-25 14:26 29.31883 -63.72947 41051 ft 554 kts 100°
2026-04-25 14:27 29.31252 -63.64142 41048 ft 555 kts 100°
2026-04-25 14:27 29.30612 -63.55309 41043 ft 556 kts 100°
2026-04-25 14:28 29.29967 -63.46470 41046 ft 557 kts 101°
2026-04-25 14:28 29.29316 -63.37630 41048 ft 558 kts 101°
2026-04-25 14:29 29.28657 -63.28771 41045 ft 558 kts 101°
2026-04-25 14:29 29.27992 -63.19913 41045 ft 559 kts 101°
2026-04-25 14:30 29.27321 -63.11046 41046 ft 559 kts 101°
2026-04-25 14:30 29.26301 -62.97729 41044 ft 560 kts 101°
2026-04-25 14:31 29.25613 -62.88830 41047 ft 561 kts 101°
2026-04-25 14:31 29.24918 -62.79931 41047 ft 561 kts 101°
2026-04-25 14:32 29.24217 -62.71034 41042 ft 562 kts 101°
2026-04-25 14:32 29.23508 -62.62110 41040 ft 563 kts 101°
2026-04-25 14:33 29.22797 -62.53225 41043 ft 564 kts 101°
2026-04-25 14:33 29.22075 -62.44286 41097 ft 565 kts 101°
2026-04-25 14:34 29.21346 -62.35337 41046 ft 565 kts 102°
2026-04-25 14:34 29.20610 -62.26374 41044 ft 566 kts 102°
2026-04-25 14:35 29.19867 -62.17406 41045 ft 566 kts 102°
2026-04-25 14:35 29.19117 -62.08421 41045 ft 567 kts 102°
2026-04-25 14:36 29.18362 -61.99440 41044 ft 567 kts 102°
2026-04-25 14:36 29.17599 -61.90450 41042 ft 568 kts 102°
2026-04-25 14:37 29.16830 -61.81454 41041 ft 569 kts 102°
2026-04-25 14:37 29.16052 -61.72440 41047 ft 569 kts 101°
2026-04-25 14:38 29.15269 -61.63423 41047 ft 570 kts 101°
2026-04-25 14:38 29.14479 -61.54397 41046 ft 570 kts 101°
2026-04-25 14:39 29.13682 -61.45365 41037 ft 571 kts 101°
2026-04-25 14:39 29.13015 -61.37858 41045 ft 571 kts 101°
2026-04-25 14:40 29.12207 -61.28831 41048 ft 571 kts 101°
2026-04-25 14:40 29.11391 -61.19780 41047 ft 572 kts 101°
2026-04-25 14:41 29.10569 -61.10741 41044 ft 572 kts 101°
2026-04-25 14:41 29.09741 -61.01690 41038 ft 572 kts 101°
2026-04-25 14:42 29.09047 -60.94162 41037 ft 572 kts 101°
2026-04-25 14:42 29.08065 -60.83585 41040 ft 572 kts 101°
2026-04-25 14:43 29.07218 -60.74536 41033 ft 572 kts 101°
2026-04-25 14:43 29.06365 -60.65498 41034 ft 572 kts 101°
2026-04-25 14:44 29.05523 -60.56627 41041 ft 572 kts 102°
2026-04-25 14:44 29.04658 -60.47583 41039 ft 572 kts 102°
2026-04-25 14:45 29.03788 -60.38554 41039 ft 572 kts 102°
2026-04-25 14:45 29.02919 -60.29594 41039 ft 571 kts 102°
2026-04-25 14:46 29.02038 -60.20575 41040 ft 571 kts 102°
2026-04-25 14:46 29.01150 -60.11558 41039 ft 571 kts 102°
2026-04-25 14:47 29.00419 -60.04171 41039 ft 571 kts 102°
2026-04-25 14:47 29.00052 -59.93584 41037 ft 576 kts 94°
2026-04-25 14:48 29.00124 -59.84422 41035 ft 577 kts 93°
2026-04-25 14:48 29.00240 -59.75256 41032 ft 577 kts 93°
2026-04-25 14:49 29.00340 -59.66095 41033 ft 577 kts 93°
2026-04-25 14:49 29.00418 -59.56935 41033 ft 577 kts 93°
2026-04-25 14:50 29.00470 -59.50112 41034 ft 577 kts 93°
2026-04-25 14:50 29.00533 -59.40946 41033 ft 577 kts 93°
2026-04-25 14:51 29.00591 -59.31787 41036 ft 577 kts 93°
2026-04-25 14:51 29.00643 -59.22618 41032 ft 577 kts 93°
2026-04-25 14:52 29.00689 -59.13455 41032 ft 577 kts 93°
2026-04-25 14:52 29.00723 -59.05829 41033 ft 577 kts 93°
2026-04-25 14:53 29.00763 -58.95120 41035 ft 577 kts 93°
2026-04-25 14:53 29.00790 -58.85936 41032 ft 578 kts 93°
2026-04-25 14:54 29.00812 -58.76766 41033 ft 578 kts 93°
2026-04-25 14:54 29.00827 -58.67585 41029 ft 578 kts 93°
2026-04-25 14:55 29.00835 -58.58405 41029 ft 578 kts 93°
2026-04-25 14:55 29.00838 -58.49307 41034 ft 578 kts 93°
2026-04-25 14:56 29.00834 -58.40103 41031 ft 578 kts 93°
2026-04-25 14:56 29.00824 -58.30912 41033 ft 578 kts 93°
2026-04-25 14:57 29.00808 -58.21724 41025 ft 579 kts 94°
2026-04-25 14:57 29.00786 -58.12534 41025 ft 579 kts 94°
2026-04-25 14:58 29.00757 -58.03343 41025 ft 579 kts 94°
2026-04-25 14:58 29.00722 -57.94139 41028 ft 579 kts 94°
2026-04-25 14:59 29.00681 -57.84942 41028 ft 579 kts 94°
2026-04-25 14:59 29.00634 -57.75739 41026 ft 580 kts 94°
2026-04-25 15:00 29.00580 -57.66522 41025 ft 580 kts 94°
2026-04-25 15:00 29.00519 -57.57315 41027 ft 580 kts 94°
2026-04-25 15:01 29.00453 -57.48101 41024 ft 581 kts 94°
2026-04-25 15:01 29.00380 -57.38874 41025 ft 581 kts 94°
2026-04-25 15:02 29.00301 -57.29654 41023 ft 581 kts 94°
2026-04-25 15:02 29.00216 -57.20428 41022 ft 581 kts 94°
2026-04-25 15:03 29.00124 -57.11199 41023 ft 581 kts 94°
2026-04-25 15:03 29.00026 -57.01971 41022 ft 581 kts 94°
2026-04-25 15:04 29.00041 -56.92737 41018 ft 582 kts 91°
2026-04-25 15:04 29.00331 -56.83487 41018 ft 583 kts 90°
2026-04-25 15:05 29.00632 -56.74246 41017 ft 583 kts 91°
2026-04-25 15:06 29.00984 -56.60371 41014 ft 583 kts 91°
2026-04-25 15:06 29.01188 -56.51119 41017 ft 583 kts 91°
2026-04-25 15:07 29.01388 -56.41859 41017 ft 583 kts 91°
2026-04-25 15:07 29.01583 -56.32617 41018 ft 583 kts 91°
2026-04-25 15:08 29.01774 -56.23344 41015 ft 583 kts 91°
2026-04-25 15:08 29.01959 -56.14085 41013 ft 583 kts 91°
2026-04-25 15:09 29.02137 -56.04815 41014 ft 584 kts 91°
2026-04-25 15:09 29.02393 -55.90908 41016 ft 584 kts 91°
2026-04-25 15:10 29.02555 -55.81631 41010 ft 584 kts 91°
2026-04-25 15:11 29.02787 -55.67712 41010 ft 584 kts 91°
2026-04-25 15:11 29.02933 -55.58433 41012 ft 584 kts 91°
2026-04-25 15:12 29.03141 -55.44511 41014 ft 585 kts 91°
2026-04-25 15:12 29.03229 -55.38297 41014 ft 585 kts 91°
2026-04-25 15:13 29.03455 -55.21278 41011 ft 585 kts 91°
2026-04-25 15:14 29.03570 -55.11983 41010 ft 585 kts 91°
2026-04-25 15:14 29.03679 -55.02683 41010 ft 585 kts 91°
2026-04-25 15:15 29.03774 -54.94000 41009 ft 586 kts 91°
2026-04-25 15:15 29.03870 -54.84701 41009 ft 586 kts 91°
2026-04-25 15:16 29.03960 -54.75403 41009 ft 586 kts 91°
2026-04-25 15:16 29.04082 -54.61427 41009 ft 586 kts 91°
2026-04-25 15:17 29.04190 -54.47458 41010 ft 586 kts 92°
2026-04-25 15:18 29.04254 -54.38143 41010 ft 586 kts 92°
2026-04-25 15:18 29.04338 -54.24158 41009 ft 587 kts 92°
2026-04-25 15:19 29.04376 -54.16951 41010 ft 587 kts 92°
2026-04-25 15:19 29.04425 -54.06055 41008 ft 587 kts 92°
2026-04-25 15:20 29.04461 -53.96732 41009 ft 587 kts 92°
2026-04-25 15:20 29.04490 -53.87388 41010 ft 587 kts 92°
2026-04-25 15:21 29.04512 -53.78116 41011 ft 587 kts 92°
2026-04-25 15:21 29.04529 -53.68723 41008 ft 587 kts 92°
2026-04-25 15:22 29.04538 -53.59449 41007 ft 588 kts 92°
2026-04-25 15:22 29.04541 -53.50119 41008 ft 588 kts 92°
2026-04-25 15:23 29.04538 -53.40774 41006 ft 588 kts 92°
2026-04-25 15:23 29.04528 -53.31425 41011 ft 588 kts 92°
2026-04-25 15:24 29.04512 -53.22081 41008 ft 589 kts 92°
2026-04-25 15:24 29.04494 -53.14234 41007 ft 589 kts 92°
2026-04-25 15:25 29.04461 -53.03368 41002 ft 589 kts 92°
2026-04-25 15:25 29.04425 -52.94003 41000 ft 589 kts 92°
2026-04-25 15:26 29.04383 -52.84643 41016 ft 589 kts 92°
2026-04-25 15:26 29.04334 -52.75286 41006 ft 589 kts 92°
2026-04-25 15:27 29.04279 -52.65916 41015 ft 589 kts 92°
2026-04-25 15:28 29.04186 -52.52009 41012 ft 590 kts 92°
2026-04-25 15:28 29.04114 -52.42632 41005 ft 590 kts 92°
2026-04-25 15:29 29.04036 -52.33253 41016 ft 590 kts 93°
2026-04-25 15:29 29.03952 -52.23883 41014 ft 591 kts 93°
2026-04-25 15:30 29.03861 -52.14483 41006 ft 591 kts 93°
2026-04-25 15:30 29.03763 -52.05084 41019 ft 592 kts 93°
2026-04-25 15:31 29.03659 -51.95690 41017 ft 592 kts 93°
2026-04-25 15:31 29.03548 -51.86275 41009 ft 592 kts 93°
2026-04-25 15:32 29.03431 -51.76866 41016 ft 592 kts 93°
2026-04-25 15:32 29.03307 -51.67448 41015 ft 593 kts 93°
2026-04-25 15:33 29.03108 -51.53328 41005 ft 593 kts 93°
2026-04-25 15:33 29.02968 -51.43914 41007 ft 593 kts 93°
2026-04-25 15:34 29.02820 -51.34478 41007 ft 594 kts 93°
2026-04-25 15:34 29.02718 -51.28179 41010 ft 594 kts 93°
2026-04-25 15:35 29.02423 -51.10883 41011 ft 594 kts 93°
2026-04-25 15:36 29.02165 -50.96721 41022 ft 595 kts 93°
2026-04-25 15:36 29.01984 -50.87273 41011 ft 595 kts 93°
2026-04-25 15:37 29.01797 -50.77813 41016 ft 596 kts 93°
2026-04-25 15:37 29.01602 -50.68352 41014 ft 596 kts 93°
2026-04-25 15:38 29.01402 -50.58887 41030 ft 596 kts 93°
2026-04-25 15:38 29.01187 -50.49414 41024 ft 596 kts 94°
2026-04-25 15:39 29.00928 -50.39958 41019 ft 596 kts 94°
2026-04-25 15:39 29.00595 -50.30481 41014 ft 597 kts 95°
2026-04-25 15:40 29.00323 -50.24210 41018 ft 597 kts 95°
2026-04-25 15:40 28.99616 -50.11564 41010 ft 596 kts 97°
2026-04-25 15:41 28.98932 -50.02136 41006 ft 596 kts 98°
2026-04-25 15:41 28.98292 -49.94761 41011 ft 595 kts 99°
2026-04-25 15:42 28.97535 -49.87139 41003 ft 595 kts 99°
2026-04-25 15:42 28.97710 -49.80876 41028 ft 597 kts 78°
2026-04-25 15:42 28.98579 -49.76251 41024 ft 596 kts 74°
2026-04-25 15:43 29.00228 -49.66959 41024 ft 598 kts 82°
2026-04-25 15:43 29.00855 -49.59049 41023 ft 598 kts 88°
2026-04-25 15:44 29.01017 -49.49551 41019 ft 597 kts 91°
2026-04-25 15:44 29.01033 -49.40055 41023 ft 598 kts 91°
2026-04-25 15:45 29.01084 -49.32388 41025 ft 598 kts 90°
2026-04-25 15:45 29.01176 -49.24433 41026 ft 598 kts 90°
2026-04-25 15:46 29.01323 -49.13396 41028 ft 598 kts 90°
2026-04-25 15:46 29.01440 -49.03903 41030 ft 598 kts 90°
2026-04-25 15:47 29.01547 -48.94405 41031 ft 598 kts 90°
2026-04-25 15:47 29.01644 -48.84905 41034 ft 598 kts 90°
2026-04-25 15:48 29.01735 -48.75414 41033 ft 598 kts 90°
2026-04-25 15:48 29.01820 -48.65920 41030 ft 598 kts 90°
2026-04-25 15:49 29.01898 -48.56422 41032 ft 598 kts 90°
2026-04-25 15:49 29.01970 -48.46932 41036 ft 598 kts 90°
2026-04-25 15:50 29.02034 -48.37446 41038 ft 598 kts 90°
2026-04-25 15:50 29.02093 -48.27941 41043 ft 598 kts 90°
2026-04-25 15:51 29.02136 -48.20060 41040 ft 598 kts 90°
2026-04-25 15:51 29.02189 -48.08955 41046 ft 598 kts 90°
2026-04-25 15:52 29.02227 -47.99462 41043 ft 598 kts 90°
2026-04-25 15:52 29.02258 -47.89965 41047 ft 598 kts 90°
2026-04-25 15:53 29.02283 -47.80460 41048 ft 598 kts 90°
2026-04-25 15:53 29.02301 -47.70965 41047 ft 598 kts 90°
2026-04-25 15:54 29.02313 -47.61465 41051 ft 598 kts 90°
2026-04-25 15:54 29.02317 -47.51977 41049 ft 598 kts 90°
2026-04-25 15:55 29.02315 -47.42489 41053 ft 598 kts 90°
2026-04-25 15:55 29.02309 -47.34914 41053 ft 597 kts 90°
2026-04-25 15:56 29.02298 -47.27255 41057 ft 597 kts 90°
2026-04-25 15:56 29.02279 -47.17764 41054 ft 597 kts 90°
2026-04-25 15:57 29.02253 -47.08273 41057 ft 597 kts 90°
2026-04-25 15:57 29.02220 -46.98787 41057 ft 597 kts 90°
2026-04-25 15:58 29.02181 -46.89300 41058 ft 597 kts 90°
2026-04-25 15:58 29.02135 -46.79827 41060 ft 597 kts 90°
2026-04-25 15:59 29.02082 -46.70350 41065 ft 596 kts 90°
2026-04-25 15:59 29.02023 -46.60884 41062 ft 596 kts 90°
2026-04-25 16:00 29.01980 -46.54600 41060 ft 596 kts 90°
2026-04-25 16:00 29.01885 -46.41937 41067 ft 596 kts 91°
2026-04-25 16:01 29.01848 -46.37191 41392 ft 596 kts 92°
2026-04-25 16:01 29.01807 -46.32475 41007 ft 595 kts 91°
2026-04-25 16:01 29.01720 -46.22995 41068 ft 596 kts 91°
2026-04-25 16:02 29.01627 -46.13534 41069 ft 596 kts 91°
2026-04-25 16:02 29.01528 -46.04071 41072 ft 596 kts 91°
2026-04-25 16:03 29.01423 -45.94604 41069 ft 596 kts 91°
2026-04-25 16:03 29.01311 -45.85139 41074 ft 596 kts 91°
2026-04-25 16:04 29.01193 -45.75742 41071 ft 595 kts 91°
2026-04-25 16:04 29.01067 -45.66227 41070 ft 595 kts 91°
2026-04-25 16:05 29.00935 -45.56772 41074 ft 595 kts 91°
2026-04-25 16:06 29.00724 -45.42581 41083 ft 596 kts 91°
2026-04-25 16:06 29.00575 -45.33115 41078 ft 596 kts 91°
2026-04-25 16:07 29.00420 -45.23656 41086 ft 596 kts 91°
2026-04-25 16:07 29.00258 -45.14197 41079 ft 596 kts 91°
2026-04-25 16:08 29.00083 -45.04747 41080 ft 596 kts 91°
2026-04-25 16:08 28.99621 -45.00049 41084 ft 594 kts 104°
2026-04-25 16:08 28.98539 -44.95513 41085 ft 589 kts 111°
2026-04-25 16:09 28.95863 -44.86678 41084 ft 588 kts 114°
2026-04-25 16:09 28.92998 -44.77940 41083 ft 588 kts 115°
2026-04-25 16:10 28.90141 -44.69239 41086 ft 589 kts 114°
2026-04-25 16:10 28.87299 -44.60478 41090 ft 589 kts 114°
2026-04-25 16:11 28.84468 -44.51711 41088 ft 589 kts 114°
2026-04-25 16:11 28.81629 -44.42938 41088 ft 589 kts 114°
2026-04-25 16:12 28.78783 -44.34179 41091 ft 589 kts 114°
2026-04-25 16:12 28.75932 -44.25427 41090 ft 590 kts 114°
2026-04-25 16:13 28.73051 -44.16608 41093 ft 590 kts 114°
2026-04-25 16:13 28.70184 -44.07854 41090 ft 590 kts 114°
2026-04-25 16:14 28.67330 -43.99160 41095 ft 590 kts 115°
2026-04-25 16:14 28.64451 -43.90410 41093 ft 590 kts 115°
2026-04-25 16:15 28.61568 -43.81673 41099 ft 590 kts 115°
2026-04-25 16:15 28.58676 -43.72928 41095 ft 590 kts 115°
2026-04-25 16:16 28.55781 -43.64197 41101 ft 590 kts 115°
2026-04-25 16:16 28.52878 -43.55463 41097 ft 590 kts 115°
2026-04-25 16:17 28.49973 -43.46744 41099 ft 590 kts 115°
2026-04-25 16:17 28.47058 -43.38018 41099 ft 590 kts 115°
2026-04-25 16:18 28.44135 -43.29289 41100 ft 590 kts 115°
2026-04-25 16:18 28.41209 -43.20573 41099 ft 590 kts 115°
2026-04-25 16:19 28.38276 -43.11857 41099 ft 591 kts 115°
2026-04-25 16:19 28.35342 -43.03160 41100 ft 591 kts 115°
2026-04-25 16:20 28.30924 -42.90104 41101 ft 590 kts 115°
2026-04-25 16:21 28.26499 -42.77072 41105 ft 590 kts 115°
2026-04-25 16:21 28.23544 -42.68398 41105 ft 590 kts 115°
2026-04-25 16:22 28.20585 -42.59729 41106 ft 590 kts 115°
2026-04-25 16:22 28.17614 -42.51050 41105 ft 590 kts 115°
2026-04-25 16:23 28.14639 -42.42379 41107 ft 590 kts 115°
2026-04-25 16:23 28.11659 -42.33714 41108 ft 590 kts 115°
2026-04-25 16:24 28.08677 -42.25061 41108 ft 590 kts 115°
2026-04-25 16:24 28.05692 -42.16422 41107 ft 590 kts 115°
2026-04-25 16:25 28.02694 -42.07765 41109 ft 590 kts 115°
2026-04-25 16:25 27.99528 -41.99235 41130 ft 585 kts 123°
2026-04-25 16:26 27.95704 -41.91120 41111 ft 583 kts 124°
2026-04-25 16:26 27.91798 -41.83162 41105 ft 583 kts 125°
2026-04-25 16:27 27.87843 -41.75165 41104 ft 583 kts 125°
2026-04-25 16:27 27.83897 -41.67165 41115 ft 583 kts 125°
2026-04-25 16:28 27.79955 -41.59164 41111 ft 583 kts 125°
2026-04-25 16:28 27.76012 -41.51171 41107 ft 583 kts 125°
2026-04-25 16:29 27.72062 -41.43182 41107 ft 583 kts 125°
2026-04-25 16:29 27.68776 -41.36546 41110 ft 582 kts 125°
2026-04-25 16:30 27.64820 -41.28574 41108 ft 582 kts 125°
2026-04-25 16:30 27.60862 -41.20613 41106 ft 582 kts 125°
2026-04-25 16:31 27.56896 -41.12649 41112 ft 582 kts 125°
2026-04-25 16:31 27.52928 -41.04698 41112 ft 582 kts 125°
2026-04-25 16:32 27.48956 -40.96752 41114 ft 582 kts 125°
2026-04-25 16:32 27.44981 -40.88815 41110 ft 582 kts 125°
2026-04-25 16:33 27.41006 -40.80892 41111 ft 582 kts 125°
2026-04-25 16:33 27.37023 -40.72970 41107 ft 581 kts 125°
2026-04-25 16:34 27.33036 -40.65054 41114 ft 581 kts 125°
2026-04-25 16:34 27.29051 -40.57155 41110 ft 581 kts 125°
2026-04-25 16:35 27.25060 -40.49259 41115 ft 581 kts 125°
2026-04-25 16:35 27.21061 -40.41362 41112 ft 581 kts 125°
2026-04-25 16:36 27.17063 -40.33482 41111 ft 581 kts 125°
2026-04-25 16:36 27.13062 -40.25609 41113 ft 580 kts 125°
2026-04-25 16:37 27.09060 -40.17749 41113 ft 580 kts 126°
2026-04-25 16:37 27.05053 -40.09893 41111 ft 580 kts 126°
2026-04-25 16:38 27.01039 -40.02040 41108 ft 580 kts 126°
2026-04-25 16:38 26.97102 -39.94148 41108 ft 582 kts 123°
2026-04-25 16:39 26.93379 -39.86079 41109 ft 582 kts 122°
2026-04-25 16:39 26.89679 -39.78014 41109 ft 582 kts 122°
2026-04-25 16:40 26.85934 -39.69982 41109 ft 581 kts 123°
2026-04-25 16:40 26.82163 -39.61975 41108 ft 581 kts 123°
2026-04-25 16:41 26.78386 -39.53981 41112 ft 581 kts 123°
2026-04-25 16:41 26.72721 -39.42007 41110 ft 581 kts 123°
2026-04-25 16:42 26.68937 -39.34022 41107 ft 580 kts 123°
2026-04-25 16:42 26.65158 -39.26060 41107 ft 580 kts 123°
2026-04-25 16:43 26.61370 -39.18097 41105 ft 580 kts 123°
2026-04-25 16:43 26.57585 -39.10155 41105 ft 579 kts 123°
2026-04-25 16:44 26.53796 -39.02218 41104 ft 579 kts 123°
2026-04-25 16:44 26.50026 -38.94335 41106 ft 579 kts 123°
2026-04-25 16:45 26.46229 -38.86410 41111 ft 578 kts 123°
2026-04-25 16:45 26.42432 -38.78501 41103 ft 578 kts 123°
2026-04-25 16:46 26.38634 -38.70602 41103 ft 578 kts 123°
2026-04-25 16:46 26.35448 -38.63987 41102 ft 578 kts 123°
2026-04-25 16:47 26.31031 -38.54834 41101 ft 577 kts 123°
2026-04-25 16:47 26.27220 -38.46950 41110 ft 577 kts 123°
2026-04-25 16:48 26.23412 -38.39088 41104 ft 577 kts 123°
2026-04-25 16:48 26.19603 -38.31238 41103 ft 576 kts 123°
2026-04-25 16:49 26.15791 -38.23395 41105 ft 576 kts 123°
2026-04-25 16:49 26.11972 -38.15553 41105 ft 576 kts 123°
2026-04-25 16:50 26.08159 -38.07735 41104 ft 575 kts 123°
2026-04-25 16:50 26.04333 -37.99905 41099 ft 575 kts 123°
2026-04-25 16:51 26.00514 -37.92102 41101 ft 575 kts 124°
2026-04-25 16:51 25.97337 -37.85623 41101 ft 574 kts 124°
2026-04-25 16:52 25.92864 -37.76514 41102 ft 574 kts 124°
2026-04-25 16:52 25.89040 -37.68743 41098 ft 574 kts 124°
2026-04-25 16:53 25.83295 -37.57093 41100 ft 573 kts 124°
2026-04-25 16:54 25.79467 -37.49345 41104 ft 572 kts 124°
2026-04-25 16:54 25.75633 -37.41601 41104 ft 572 kts 124°
2026-04-25 16:55 25.71802 -37.33875 41102 ft 572 kts 124°
2026-04-25 16:55 25.67966 -37.26154 41101 ft 572 kts 124°
2026-04-25 16:56 25.64127 -37.18438 41103 ft 571 kts 124°
2026-04-25 16:56 25.60289 -37.10739 41102 ft 571 kts 124°
2026-04-25 16:57 25.56438 -37.03095 41103 ft 574 kts 122°
2026-04-25 16:57 25.52514 -36.95304 41104 ft 584 kts 122°
2026-04-25 16:58 25.48571 -36.87435 41102 ft 584 kts 122°
2026-04-25 16:58 25.44633 -36.79575 41101 ft 584 kts 122°
2026-04-25 16:59 25.40690 -36.71725 41105 ft 584 kts 122°
2026-04-25 16:59 25.36739 -36.63878 41109 ft 584 kts 122°
2026-04-25 17:00 25.32787 -36.56043 41107 ft 584 kts 122°
2026-04-25 17:00 25.28829 -36.48212 41106 ft 584 kts 122°
2026-04-25 17:01 25.24880 -36.40412 41106 ft 584 kts 122°
2026-04-25 17:01 25.20894 -36.32595 41111 ft 584 kts 122°
2026-04-25 17:02 25.16922 -36.24764 41110 ft 584 kts 122°
2026-04-25 17:02 25.12959 -36.16945 41107 ft 584 kts 122°
2026-04-25 17:03 25.08988 -36.09138 41108 ft 583 kts 122°
2026-04-25 17:03 25.05030 -36.01328 41105 ft 583 kts 122°
2026-04-25 17:04 25.01064 -35.93527 41107 ft 583 kts 122°
2026-04-25 17:04 24.97080 -35.85737 41107 ft 583 kts 122°
2026-04-25 17:05 24.93088 -35.77956 41108 ft 583 kts 122°
2026-04-25 17:05 24.87096 -35.66304 41108 ft 583 kts 122°
2026-04-25 17:06 24.83100 -35.58546 41107 ft 582 kts 122°
2026-04-25 17:06 24.79099 -35.50791 41107 ft 582 kts 122°
2026-04-25 17:07 24.75100 -35.43052 41104 ft 582 kts 122°
2026-04-25 17:07 24.71094 -35.35313 41103 ft 582 kts 122°
2026-04-25 17:08 24.67087 -35.27585 41113 ft 582 kts 122°
2026-04-25 17:08 24.63078 -35.19865 41115 ft 582 kts 122°
2026-04-25 17:09 24.59067 -35.12154 41099 ft 581 kts 122°
2026-04-25 17:09 24.55048 -35.04440 41113 ft 581 kts 122°
2026-04-25 17:10 24.51052 -34.96782 41108 ft 581 kts 122°
2026-04-25 17:10 24.47009 -34.89046 41108 ft 581 kts 122°
2026-04-25 17:11 24.43009 -34.81407 41114 ft 581 kts 122°
2026-04-25 17:11 24.38981 -34.73726 41112 ft 580 kts 122°
2026-04-25 17:12 24.34955 -34.66060 41111 ft 580 kts 122°
2026-04-25 17:12 24.30923 -34.58394 41111 ft 580 kts 122°
2026-04-25 17:13 24.28224 -34.53270 41111 ft 580 kts 122°
2026-04-25 17:13 24.23500 -34.44316 41112 ft 580 kts 123°
2026-04-25 17:14 24.18802 -34.35426 41115 ft 580 kts 123°
2026-04-25 17:14 24.15416 -34.29029 41111 ft 579 kts 123°
2026-04-25 17:15 24.11376 -34.21407 41114 ft 579 kts 123°
2026-04-25 17:15 24.07324 -34.13775 41116 ft 579 kts 123°
2026-04-25 17:16 24.03275 -34.06161 41112 ft 579 kts 123°
2026-04-25 17:16 23.99222 -33.98553 41113 ft 579 kts 123°
2026-04-25 17:17 23.95085 -33.91203 41114 ft 577 kts 125°
2026-04-25 17:17 23.90762 -33.83811 41114 ft 577 kts 126°
2026-04-25 17:18 23.86460 -33.76402 41120 ft 577 kts 125°
2026-04-25 17:18 23.82186 -33.68983 41117 ft 577 kts 125°
2026-04-25 17:19 23.77913 -33.61555 41117 ft 577 kts 124°
2026-04-25 17:19 23.73691 -33.54120 41119 ft 577 kts 124°
2026-04-25 17:20 23.69421 -33.46701 41119 ft 576 kts 126°
2026-04-25 17:20 23.65109 -33.39340 41119 ft 576 kts 126°
2026-04-25 17:21 23.60806 -33.31965 41118 ft 576 kts 125°
2026-04-25 17:21 23.56551 -33.24640 41117 ft 576 kts 125°
2026-04-25 17:22 23.52966 -33.18466 41119 ft 575 kts 125°
2026-04-25 17:22 23.47991 -33.09914 41114 ft 575 kts 125°
2026-04-25 17:23 23.43702 -33.02555 41114 ft 575 kts 125°
2026-04-25 17:23 23.39419 -32.95217 41113 ft 575 kts 126°
2026-04-25 17:24 23.35127 -32.87875 41113 ft 574 kts 126°
2026-04-25 17:24 23.30836 -32.80546 41113 ft 574 kts 126°
2026-04-25 17:25 23.26544 -32.73226 41113 ft 574 kts 126°
2026-04-25 17:25 23.22247 -32.65906 41113 ft 574 kts 126°
2026-04-25 17:26 23.17952 -32.58601 41109 ft 574 kts 126°
2026-04-25 17:26 23.13650 -32.51293 41111 ft 573 kts 126°
2026-04-25 17:27 23.09350 -32.44000 41113 ft 573 kts 126°
2026-04-25 17:27 23.06475 -32.39130 41113 ft 573 kts 126°
2026-04-25 17:28 23.00749 -32.29445 41109 ft 572 kts 126°
2026-04-25 17:28 22.96445 -32.22176 41105 ft 572 kts 126°
2026-04-25 17:29 22.92141 -32.14917 41106 ft 572 kts 126°
2026-04-25 17:29 22.87837 -32.07669 41105 ft 571 kts 126°
2026-04-25 17:30 22.83532 -32.00430 41103 ft 571 kts 126°
2026-04-25 17:30 22.79232 -31.93207 41108 ft 570 kts 126°
2026-04-25 17:31 22.74928 -31.85990 41104 ft 570 kts 126°
2026-04-25 17:31 22.70634 -31.78796 41103 ft 569 kts 126°
2026-04-25 17:32 22.66333 -31.71587 41099 ft 569 kts 126°
2026-04-25 17:32 22.62053 -31.64384 41100 ft 569 kts 125°
2026-04-25 17:33 22.57783 -31.57193 41111 ft 568 kts 125°
2026-04-25 17:33 22.53491 -31.50013 41097 ft 568 kts 126°
2026-04-25 17:34 22.49192 -31.42846 41092 ft 568 kts 126°
2026-04-25 17:34 22.44884 -31.35694 41090 ft 568 kts 126°
2026-04-25 17:35 22.40584 -31.28530 41088 ft 568 kts 124°
2026-04-25 17:35 22.36310 -31.21352 41086 ft 568 kts 125°
2026-04-25 17:36 22.32011 -31.14187 41100 ft 568 kts 125°
2026-04-25 17:36 22.27696 -31.07045 41096 ft 568 kts 125°
2026-04-25 17:37 22.23331 -30.99952 41093 ft 567 kts 127°
2026-04-25 17:37 22.18927 -30.92900 41091 ft 567 kts 127°
2026-04-25 17:38 22.15293 -30.87017 41090 ft 567 kts 127°
2026-04-25 17:38 22.10224 -30.78721 41091 ft 566 kts 127°
2026-04-25 17:39 22.05903 -30.71620 41089 ft 566 kts 127°
2026-04-25 17:39 22.01609 -30.64574 41089 ft 566 kts 127°
2026-04-25 17:40 21.97258 -30.57450 41082 ft 565 kts 127°
2026-04-25 17:40 21.92931 -30.50378 41084 ft 565 kts 127°
2026-04-25 17:41 21.88603 -30.43312 41084 ft 565 kts 127°
2026-04-25 17:41 21.84308 -30.36309 41085 ft 564 kts 127°
2026-04-25 17:42 21.80998 -30.30918 41082 ft 564 kts 127°
2026-04-25 17:42 21.76670 -30.23878 41081 ft 564 kts 127°
2026-04-25 17:43 21.72376 -30.16901 41079 ft 563 kts 127°
2026-04-25 17:43 21.68021 -30.09835 41083 ft 563 kts 127°
2026-04-25 17:44 21.63721 -30.02867 41081 ft 563 kts 127°
2026-04-25 17:44 21.59364 -29.95816 41081 ft 562 kts 127°
2026-04-25 17:45 21.56500 -29.91184 41077 ft 562 kts 127°
2026-04-25 17:45 21.50739 -29.81882 41076 ft 561 kts 127°
2026-04-25 17:46 21.46364 -29.74957 41071 ft 560 kts 129°
2026-04-25 17:46 21.41837 -29.68157 41076 ft 559 kts 129°
2026-04-25 17:47 21.37303 -29.61381 41067 ft 559 kts 129°
2026-04-25 17:47 21.32790 -29.54590 41073 ft 558 kts 129°
2026-04-25 17:48 21.26052 -29.44416 41068 ft 557 kts 129°
2026-04-25 17:49 21.21561 -29.37642 41068 ft 557 kts 129°
2026-04-25 17:49 21.17071 -29.30881 41064 ft 557 kts 129°
2026-04-25 17:50 21.12580 -29.24128 41071 ft 556 kts 129°
2026-04-25 17:50 21.08095 -29.17391 41066 ft 555 kts 129°
2026-04-25 17:51 21.03607 -29.10658 41064 ft 555 kts 129°
2026-04-25 17:51 20.99129 -29.03947 41061 ft 554 kts 129°
2026-04-25 17:52 20.94648 -28.97240 41060 ft 554 kts 129°
2026-04-25 17:52 20.90164 -28.90537 41062 ft 553 kts 129°
2026-04-25 17:53 20.85689 -28.83855 41062 ft 553 kts 129°
2026-04-25 17:53 20.81206 -28.77170 41058 ft 552 kts 129°
2026-04-25 17:54 20.76734 -28.70508 41055 ft 552 kts 129°
2026-04-25 17:54 20.72253 -28.63840 41056 ft 552 kts 129°
2026-04-25 17:55 20.67778 -28.57190 41054 ft 551 kts 129°
2026-04-25 17:55 20.63306 -28.50550 41052 ft 551 kts 129°
2026-04-25 17:56 20.58831 -28.43916 41046 ft 550 kts 130°
2026-04-25 17:56 20.54364 -28.37299 41047 ft 550 kts 130°
2026-04-25 17:57 20.49894 -28.30686 41046 ft 549 kts 130°
2026-04-25 17:57 20.46180 -28.25198 41049 ft 549 kts 130°
2026-04-25 17:58 20.42018 -28.19054 41043 ft 549 kts 130°
2026-04-25 17:58 20.37551 -28.12467 41044 ft 548 kts 130°
2026-04-25 17:59 20.33086 -28.05889 41042 ft 548 kts 130°
2026-04-25 17:59 20.28617 -27.99315 41041 ft 548 kts 130°
2026-04-25 18:00 20.24150 -27.92749 41043 ft 547 kts 130°
2026-04-25 18:00 20.19684 -27.86193 41040 ft 547 kts 130°
2026-04-25 18:01 20.15221 -27.79647 41036 ft 546 kts 130°
2026-04-25 18:01 20.10759 -27.73111 41039 ft 546 kts 130°
2026-04-25 18:02 20.06289 -27.66570 41041 ft 546 kts 130°
2026-04-25 18:02 20.01826 -27.60048 41036 ft 545 kts 130°
2026-04-25 18:03 19.97368 -27.53539 41032 ft 545 kts 130°
2026-04-25 18:03 19.92906 -27.47031 41035 ft 544 kts 130°
2026-04-25 18:04 19.88442 -27.40529 41028 ft 544 kts 130°
2026-04-25 18:04 19.83981 -27.34038 41028 ft 544 kts 130°
2026-04-25 18:05 19.79525 -27.27560 41030 ft 543 kts 130°
2026-04-25 18:05 19.75067 -27.21087 41032 ft 543 kts 130°
2026-04-25 18:06 19.70604 -27.14614 41026 ft 543 kts 130°
2026-04-25 18:06 19.66145 -27.08153 41030 ft 542 kts 130°
2026-04-25 18:07 19.61689 -27.01703 41026 ft 542 kts 130°
2026-04-25 18:07 19.57234 -26.95262 41027 ft 541 kts 130°
2026-04-25 18:08 19.52781 -26.88830 41021 ft 541 kts 130°
2026-04-25 18:08 19.48326 -26.82403 41024 ft 541 kts 130°
2026-04-25 18:09 19.43875 -26.75987 41023 ft 540 kts 130°
2026-04-25 18:09 19.39423 -26.69578 41020 ft 540 kts 130°
2026-04-25 18:10 19.34976 -26.63183 41027 ft 539 kts 130°
2026-04-25 18:10 19.30531 -26.56797 41025 ft 539 kts 130°
2026-04-25 18:11 19.26087 -26.50420 41019 ft 538 kts 130°
2026-04-25 18:11 19.21672 -26.44090 41021 ft 537 kts 130°
2026-04-25 18:12 19.17207 -26.37695 41019 ft 537 kts 130°
2026-04-25 18:12 19.12768 -26.31344 41019 ft 537 kts 130°
2026-04-25 18:13 19.08328 -26.24999 41017 ft 536 kts 130°
2026-04-25 18:13 19.03891 -26.18662 41013 ft 536 kts 130°
2026-04-25 18:14 18.97270 -26.09222 41015 ft 535 kts 130°
2026-04-25 18:14 18.92843 -26.02904 41008 ft 535 kts 130°
2026-04-25 18:15 18.88447 -25.96551 41011 ft 535 kts 130°
2026-04-25 18:15 18.84036 -25.90166 41009 ft 535 kts 130°
2026-04-25 18:16 18.79677 -25.83874 41012 ft 534 kts 130°
2026-04-25 18:17 18.73798 -25.75411 41009 ft 534 kts 130°
2026-04-25 18:17 18.69568 -25.69330 41005 ft 534 kts 130°
2026-04-25 18:18 18.65168 -25.63010 41007 ft 534 kts 130°
2026-04-25 18:18 18.60776 -25.56708 41004 ft 534 kts 130°
2026-04-25 18:19 18.56377 -25.50402 41004 ft 533 kts 130°
2026-04-25 18:19 18.51980 -25.44105 41002 ft 533 kts 130°
2026-04-25 18:20 18.47580 -25.37810 41002 ft 533 kts 130°
2026-04-25 18:20 18.43181 -25.31523 40999 ft 533 kts 130°
2026-04-25 18:21 18.38779 -25.25238 40998 ft 533 kts 130°
2026-04-25 18:21 18.34378 -25.18960 40997 ft 533 kts 130°
2026-04-25 18:22 18.29980 -25.12692 40995 ft 533 kts 130°
2026-04-25 18:22 18.25575 -25.06421 41014 ft 532 kts 130°
2026-04-25 18:23 18.21173 -25.00161 40994 ft 532 kts 130°
2026-04-25 18:23 18.16769 -24.93903 40987 ft 532 kts 130°
2026-04-25 18:24 18.12361 -24.87645 40986 ft 532 kts 130°
2026-04-25 18:24 18.07960 -24.81403 40981 ft 532 kts 130°
2026-04-25 18:25 18.03558 -24.75166 40999 ft 531 kts 130°
2026-04-25 18:25 17.99159 -24.68939 40994 ft 531 kts 130°
2026-04-25 18:26 17.94755 -24.62711 40987 ft 531 kts 130°
2026-04-25 18:26 17.90348 -24.56485 40987 ft 531 kts 130°
2026-04-25 18:27 17.85943 -24.50268 40984 ft 530 kts 130°
2026-04-25 18:27 17.81544 -24.44064 40981 ft 530 kts 130°
2026-04-25 18:28 17.77140 -24.37859 40988 ft 530 kts 130°
2026-04-25 18:28 17.72734 -24.31657 40985 ft 530 kts 130°
2026-04-25 18:29 17.66102 -24.22394 40981 ft 529 kts 131°
2026-04-25 18:30 17.57215 -24.10080 40977 ft 529 kts 131°
2026-04-25 18:30 17.52777 -24.03928 40978 ft 529 kts 131°
2026-04-25 18:31 17.48338 -23.97778 40978 ft 529 kts 131°
2026-04-25 18:31 17.43908 -23.91646 40972 ft 529 kts 131°
2026-04-25 18:32 17.39467 -23.85506 40975 ft 528 kts 131°
2026-04-25 18:32 17.35057 -23.79413 40974 ft 528 kts 131°
2026-04-25 18:33 17.30624 -23.73293 40976 ft 528 kts 131°
2026-04-25 18:33 17.26187 -23.67174 40974 ft 528 kts 131°
2026-04-25 18:34 17.21748 -23.61058 40971 ft 527 kts 131°
2026-04-25 18:34 17.17318 -23.54960 40971 ft 527 kts 131°
2026-04-25 18:35 17.12882 -23.48860 40969 ft 526 kts 131°
2026-04-25 18:35 17.08456 -23.42777 40966 ft 525 kts 131°
2026-04-25 18:36 17.04032 -23.36704 40967 ft 525 kts 131°
2026-04-25 18:36 16.99613 -23.30642 40963 ft 524 kts 131°
2026-04-25 18:37 16.95199 -23.24594 40957 ft 524 kts 131°
2026-04-25 18:37 16.90770 -23.18529 40952 ft 523 kts 131°
2026-04-25 18:38 16.86356 -23.12490 40947 ft 523 kts 131°
2026-04-25 18:38 16.81943 -23.06457 40938 ft 523 kts 131°
2026-04-25 18:39 16.77532 -23.00434 40936 ft 522 kts 131°
2026-04-25 18:39 16.73498 -22.94115 40937 ft 527 kts 118°
2026-04-25 18:40 16.70738 -22.87019 40940 ft 529 kts 112°
2026-04-25 18:40 16.68261 -22.79850 40938 ft 529 kts 111°
2026-04-25 18:41 16.65795 -22.72634 40943 ft 529 kts 112°
2026-04-25 18:41 16.63706 -22.66592 40942 ft 528 kts 112°
2026-04-25 18:42 16.61619 -22.60606 40944 ft 528 kts 112°
2026-04-25 18:42 16.58677 -22.52200 40944 ft 528 kts 112°
2026-04-25 18:43 16.56157 -22.45011 40941 ft 528 kts 112°
2026-04-25 18:43 16.53639 -22.37832 40941 ft 527 kts 112°
2026-04-25 18:44 16.51118 -22.30653 40943 ft 527 kts 112°
2026-04-25 18:44 16.48596 -22.23478 40944 ft 527 kts 112°
2026-04-25 18:45 16.46090 -22.16356 40945 ft 527 kts 112°
2026-04-25 18:45 16.43548 -22.09143 40946 ft 527 kts 112°
2026-04-25 18:46 16.41039 -22.02032 40944 ft 527 kts 112°
2026-04-25 18:46 16.38510 -21.94873 40944 ft 527 kts 112°
2026-04-25 18:47 16.35981 -21.87723 40941 ft 527 kts 112°
2026-04-25 18:47 16.33447 -21.80568 40942 ft 526 kts 112°
2026-04-25 18:48 16.30914 -21.73423 40944 ft 526 kts 112°
2026-04-25 18:48 16.28375 -21.66272 40942 ft 526 kts 112°
2026-04-25 18:49 16.25824 -21.59137 40938 ft 526 kts 112°
2026-04-25 18:49 16.23259 -21.52006 40935 ft 526 kts 112°
2026-04-25 18:50 16.20693 -21.44878 40934 ft 526 kts 112°
2026-04-25 18:50 16.18132 -21.37761 40938 ft 526 kts 112°
2026-04-25 18:51 16.16000 -21.31843 40935 ft 526 kts 112°
2026-04-25 18:51 16.12998 -21.23520 40934 ft 525 kts 112°
2026-04-25 18:52 16.10430 -21.16407 40930 ft 525 kts 112°
2026-04-25 18:52 16.07860 -21.09298 40932 ft 525 kts 112°
2026-04-25 18:53 16.05289 -21.02196 40930 ft 525 kts 112°
2026-04-25 18:53 16.02715 -20.95092 40933 ft 525 kts 112°
2026-04-25 18:54 15.98852 -20.84450 40927 ft 524 kts 112°
2026-04-25 18:55 15.96278 -20.77367 40927 ft 524 kts 112°
2026-04-25 18:55 15.93704 -20.70292 40924 ft 524 kts 113°
2026-04-25 18:56 15.91121 -20.63202 40920 ft 524 kts 113°
2026-04-25 18:56 15.88545 -20.56137 40926 ft 523 kts 113°
2026-04-25 18:57 15.86010 -20.49194 40920 ft 523 kts 113°
2026-04-25 18:57 15.83426 -20.42127 40920 ft 523 kts 113°
2026-04-25 18:58 15.80843 -20.35068 40915 ft 523 kts 113°
2026-04-25 18:58 15.76967 -20.24491 40915 ft 522 kts 113°
2026-04-25 18:59 15.71813 -20.10454 40914 ft 522 kts 113°
2026-04-25 19:00 15.67934 -19.99911 40913 ft 521 kts 113°
2026-04-25 19:01 15.64157 -19.89321 40912 ft 522 kts 112°
2026-04-25 19:01 15.61649 -19.82272 40910 ft 521 kts 112°
2026-04-25 19:02 15.57873 -19.71706 40911 ft 521 kts 112°
2026-04-25 19:02 15.56614 -19.68188 40699 ft 518 kts 112°
2026-04-25 19:03 15.54940 -19.63514 39893 ft 516 kts 112°
2026-04-25 19:03 15.52857 -19.57708 38728 ft 520 kts 112°
2026-04-25 19:03 15.51589 -19.54178 37912 ft 522 kts 112°
2026-04-25 19:04 15.49045 -19.47101 36396 ft 526 kts 111°
2026-04-25 19:04 15.47758 -19.43522 36011 ft 531 kts 111°
2026-04-25 19:05 15.45187 -19.36299 35909 ft 537 kts 110°
2026-04-25 19:05 15.42676 -19.29010 35902 ft 536 kts 110°
2026-04-25 19:06 15.40160 -19.21742 35900 ft 536 kts 110°
2026-04-25 19:06 15.36388 -19.10885 35895 ft 536 kts 110°
2026-04-25 19:07 15.32581 -18.99950 35897 ft 535 kts 110°
2026-04-25 19:08 15.27974 -18.89518 35894 ft 534 kts 119°
2026-04-25 19:09 15.21521 -18.77070 35895 ft 533 kts 119°
2026-04-25 19:10 15.15654 -18.65792 35893 ft 533 kts 119°
2026-04-25 19:10 15.12167 -18.59096 35890 ft 532 kts 119°
2026-04-25 19:11 15.08653 -18.52356 35888 ft 532 kts 119°
2026-04-25 19:11 15.05112 -18.45571 35882 ft 532 kts 119°
2026-04-25 19:12 15.01595 -18.38836 35884 ft 532 kts 119°
2026-04-25 19:12 14.98102 -18.32154 35882 ft 531 kts 119°
2026-04-25 19:13 14.94588 -18.25438 35883 ft 531 kts 119°
2026-04-25 19:13 14.91074 -18.18727 35881 ft 531 kts 119°
2026-04-25 19:14 14.87556 -18.12016 35880 ft 531 kts 119°
2026-04-25 19:14 14.84036 -18.05307 35878 ft 530 kts 119°
2026-04-25 19:14 14.82290 -18.01980 35600 ft 524 kts 119°
2026-04-25 19:15 14.80549 -17.98665 34867 ft 525 kts 119°
2026-04-25 19:15 14.78806 -17.95349 34046 ft 527 kts 118°
2026-04-25 19:15 14.77053 -17.92015 33134 ft 529 kts 118°
2026-04-25 19:15 14.75363 -17.88801 32251 ft 531 kts 118°
2026-04-25 19:16 14.73595 -17.85439 31328 ft 533 kts 118°
2026-04-25 19:16 14.71824 -17.82074 30438 ft 534 kts 118°
2026-04-25 19:16 14.70053 -17.78709 29649 ft 532 kts 118°
2026-04-25 19:16 14.68296 -17.75371 28908 ft 527 kts 118°
2026-04-25 19:17 14.66548 -17.72054 28239 ft 521 kts 118°
2026-04-25 19:17 14.64831 -17.68794 27605 ft 515 kts 118°
2026-04-25 19:17 14.63128 -17.65564 26978 ft 509 kts 118°
2026-04-25 19:17 14.61444 -17.62372 26375 ft 503 kts 118°
2026-04-25 19:18 14.59784 -17.59227 25827 ft 495 kts 118°
2026-04-25 19:18 14.58160 -17.56151 25537 ft 482 kts 118°
2026-04-25 19:18 14.56572 -17.53145 25260 ft 470 kts 118°
2026-04-25 19:18 14.55050 -17.50265 24865 ft 444 kts 118°
2026-04-25 19:19 14.53617 -17.47555 24394 ft 419 kts 118°
2026-04-25 19:19 14.52254 -17.44977 23887 ft 400 kts 118°
2026-04-25 19:19 14.50940 -17.42492 23163 ft 388 kts 119°
2026-04-25 19:19 14.50504 -17.41666 22858 ft 385 kts 119°
2026-04-25 19:20 14.48408 -17.37701 21368 ft 374 kts 119°
2026-04-25 19:20 14.47168 -17.35358 20479 ft 369 kts 120°
2026-04-25 19:20 14.45943 -17.33045 19629 ft 364 kts 120°
2026-04-25 19:20 14.44546 -17.30912 18747 ft 357 kts 135°
2026-04-25 19:21 14.43268 -17.29784 18176 ft 351 kts 149°
2026-04-25 19:21 14.39134 -17.27288 16426 ft 338 kts 154°
2026-04-25 19:21 14.37117 -17.26137 15832 ft 324 kts 154°
2026-04-25 19:22 14.35191 -17.25032 15341 ft 310 kts 154°
2026-04-25 19:22 14.33338 -17.23967 14722 ft 302 kts 154°
2026-04-25 19:22 14.29729 -17.21893 13443 ft 290 kts 154°
2026-04-25 19:23 14.27983 -17.20890 12757 ft 284 kts 154°
2026-04-25 19:23 14.24561 -17.18946 11397 ft 280 kts 154°
2026-04-25 19:23 14.22856 -17.17998 11070 ft 277 kts 154°
2026-04-25 19:24 14.21161 -17.17067 10769 ft 274 kts 154°
2026-04-25 19:24 14.19454 -17.16144 10173 ft 282 kts 154°
2026-04-25 19:24 14.15949 -17.14197 9122 ft 289 kts 144°
2026-04-25 19:25 14.14051 -17.10704 8114 ft 293 kts 95°
2026-04-25 19:25 14.14229 -17.08630 7692 ft 291 kts 77°
2026-04-25 19:25 14.14712 -17.06617 7280 ft 289 kts 74°
2026-04-25 19:26 14.15222 -17.04622 6895 ft 286 kts 74°
2026-04-25 19:26 14.15553 -17.03308 6636 ft 285 kts 74°
2026-04-25 19:26 14.16191 -17.00673 6069 ft 283 kts 74°
2026-04-25 19:26 14.16499 -16.99366 5798 ft 282 kts 74°
2026-04-25 19:27 14.16950 -16.97408 5415 ft 279 kts 74°
2026-04-25 19:27 14.17257 -16.96126 5143 ft 277 kts 72°
2026-04-25 19:27 14.18546 -16.93923 4589 ft 267 kts 38°
2026-04-25 19:27 14.20147 -16.93042 4174 ft 260 kts 12°
2026-04-25 19:28 14.21924 -16.93040 4008 ft 254 kts 347°
2026-04-25 19:28 14.23466 -16.93797 3990 ft 240 kts 330°
2026-04-25 19:28 14.24886 -16.94695 4002 ft 242 kts 330°
2026-04-25 19:28 14.26345 -16.95619 4003 ft 249 kts 330°
2026-04-25 19:29 14.27826 -16.96551 4002 ft 250 kts 330°
2026-04-25 19:29 14.29315 -16.97486 4001 ft 250 kts 330°
2026-04-25 19:29 14.30796 -16.98416 4002 ft 250 kts 330°
2026-04-25 19:29 14.32274 -16.99343 3994 ft 241 kts 330°
2026-04-25 19:30 14.33650 -17.00223 3988 ft 225 kts 330°
2026-04-25 19:30 14.34941 -17.01066 3979 ft 218 kts 329°
2026-04-25 19:30 14.36200 -17.01654 3970 ft 216 kts 350°
2026-04-25 19:30 14.37668 -17.01516 3979 ft 215 kts 21°
2026-04-25 19:31 14.38826 -17.00553 3976 ft 221 kts 53°
2026-04-25 19:31 14.39349 -16.99058 3980 ft 225 kts 78°
2026-04-25 19:31 14.39488 -16.97435 3971 ft 229 kts 83°
2026-04-25 19:31 14.39553 -16.95793 3978 ft 230 kts 86°
2026-04-25 19:32 14.39247 -16.94166 3978 ft 235 kts 109°
2026-04-25 19:32 14.38321 -16.92772 3977 ft 239 kts 136°
2026-04-25 19:32 14.36973 -16.91753 3981 ft 241 kts 146°
2026-04-25 19:32 14.36027 -16.91147 3977 ft 242 kts 147°
2026-04-25 19:33 14.34116 -16.89962 3978 ft 242 kts 147°
2026-04-25 19:33 14.32668 -16.89067 3976 ft 242 kts 147°
2026-04-25 19:33 14.31221 -16.88176 3970 ft 242 kts 147°
2026-04-25 19:33 14.29774 -16.87276 3975 ft 243 kts 147°
2026-04-25 19:34 14.28329 -16.86378 3973 ft 243 kts 147°
2026-04-25 19:34 14.26874 -16.85477 3977 ft 243 kts 147°
2026-04-25 19:34 14.25302 -16.84849 3971 ft 246 kts 172°
2026-04-25 19:34 14.23625 -16.85047 3969 ft 244 kts 203°
2026-04-25 19:35 14.22280 -16.86054 3967 ft 238 kts 234°
2026-04-25 19:35 14.21619 -16.87603 3970 ft 239 kts 265°
2026-04-25 19:35 14.21803 -16.89264 3975 ft 234 kts 296°
2026-04-25 19:35 14.22734 -16.90596 3983 ft 229 kts 319°
2026-04-25 19:36 14.23941 -16.91667 3980 ft 229 kts 323°
2026-04-25 19:36 14.25182 -16.92691 3980 ft 229 kts 324°
2026-04-25 19:36 14.26432 -16.93715 3980 ft 229 kts 324°
2026-04-25 19:36 14.27681 -16.94740 3983 ft 229 kts 324°
2026-04-25 19:37 14.28936 -16.95762 3978 ft 230 kts 324°
2026-04-25 19:37 14.30193 -16.96776 3980 ft 230 kts 324°
2026-04-25 19:37 14.31447 -16.97790 3982 ft 229 kts 324°
2026-04-25 19:37 14.32702 -16.98807 3984 ft 229 kts 324°
2026-04-25 19:38 14.34001 -16.99764 3989 ft 229 kts 329°
2026-04-25 19:38 14.35342 -17.00650 3985 ft 228 kts 330°
2026-04-25 19:38 14.36669 -17.01513 3690 ft 226 kts 330°
2026-04-25 19:38 14.38006 -17.02370 3344 ft 227 kts 330°
2026-04-25 19:39 14.39341 -17.03222 3085 ft 225 kts 330°
2026-04-25 19:39 14.40674 -17.04080 3020 ft 227 kts 330°
2026-04-25 19:39 14.42031 -17.04903 3013 ft 226 kts 333°
2026-04-25 19:39 14.43427 -17.05623 3019 ft 224 kts 336°
2026-04-25 19:40 14.44852 -17.06262 3015 ft 224 kts 339°
2026-04-25 19:40 14.46302 -17.06854 3021 ft 225 kts 341°
2026-04-25 19:40 14.47820 -17.07234 3025 ft 224 kts 354°
2026-04-25 19:40 14.49368 -17.07271 3029 ft 223 kts
2026-04-25 19:41 14.50921 -17.07276 2974 ft 224 kts 357°
2026-04-25 19:41 14.52465 -17.07317 2725 ft 223 kts
2026-04-25 19:41 14.54010 -17.07288 2430 ft 220 kts
2026-04-25 19:41 14.55020 -17.07289 2261 ft 218 kts
2026-04-25 19:42 14.57020 -17.07292 1884 ft 213 kts
2026-04-25 19:42 14.58479 -17.07284 1618 ft 210 kts
2026-04-25 19:42 14.59950 -17.07286 1346 ft 208 kts
2026-04-25 19:42 14.61367 -17.07279 1079 ft 195 kts
2026-04-25 19:43 14.62607 -17.07278 844 ft 168 kts 359°
2026-04-25 19:43 14.63724 -17.07270 660 ft 152 kts
2026-04-25 19:43 14.64714 -17.07259 500 ft 134 kts 357°
2026-04-25 19:43 14.65596 -17.07271 349 ft 122 kts 360°
2026-04-25 19:44 14.66397 -17.07272 308 ft 105 kts 359°
2026-04-25 19:44 14.66977 -17.07283 312 ft 55 kts 359°
2026-04-25 19:44 14.67333 -17.07285 307 ft 51 kts 359°
2026-04-25 19:44 14.67591 -17.07274 308 ft 33 kts 14°
2026-04-25 19:45 14.67790 -17.07196 308 ft 15 kts 31°
2026-04-25 19:45 14.67873 -17.07145 310 ft 15 kts 29°
2026-04-25 19:45 14.67971 -17.07103 309 ft 8 kts
2026-04-25 19:45 14.68013 -17.07101 308 ft 7 kts
2026-04-25 19:46 14.68016 -17.07101 308 ft 1 kts
2026-04-25 19:46 14.68083 -17.07101 311 ft 12 kts 360°
2026-04-25 19:46 14.68197 -17.07105 309 ft 5 kts 355°
2026-04-25 19:46 14.68200 -17.07105 309 ft 2 kts 356°
2026-04-25 19:47 14.68212 -17.07107 309 ft 6 kts 348°
2026-04-25 19:47 14.68235 -17.07100 309 ft 2 kts 75°
2026-04-25 19:47 14.68209 -17.07092 310 ft 11 kts 177°
2026-04-25 19:47 14.68098 -17.07095 310 ft 13 kts 175°
2026-04-25 19:48 14.68069 -17.07064 309 ft 4 kts 111°
2026-04-25 19:48 14.68057 -17.07035 310 ft 0 kts 111°
2026-04-25 19:48 14.68046 -17.07016 309 ft 8 kts 129°
2026-04-25 19:48 14.67964 -17.06985 309 ft 16 kts 168°
2026-04-25 19:49 14.67822 -17.06988 308 ft 23 kts 182°
2026-04-25 19:49 14.67769 -17.06988 308 ft 21 kts 178°
2026-04-25 19:49 14.67527 -17.06981 309 ft 23 kts 179°
2026-04-25 19:49 14.67432 -17.06981 311 ft 0 kts 178°
2026-04-25 19:50 14.67421 -17.06981 311 ft 2 kts 178°
2026-04-25 19:50 14.67389 -17.06980 309 ft 7 kts 179°
2026-04-25 19:50 14.67351 -17.06974 309 ft 4 kts 155°
2026-04-25 19:51 14.67344 -17.06958 311 ft 3 kts 109°
2026-04-25 19:51 14.67329 -17.06926 309 ft 2 kts 136°
2026-04-25 19:51 14.67306 -17.06905 309 ft 6 kts 137°
2026-04-25 19:51 14.67259 -17.06870 310 ft 9 kts 146°
2026-04-25 19:52 14.67244 -17.06861 312 ft 0 kts 147°
2026-04-25 19:52 14.67242 -17.06859 312 ft 1 kts 148°
2026-04-25 19:52 14.67233 -17.06853 309 ft 3 kts 149°
2026-04-25 19:52 14.67231 -17.06853 309 ft 0 kts 148°